Regional Weather Roundup
Issued by NWS

Home | Current Version | Previous Version | Graphics & Text | Print | Product List | Glossary On
Versions: 1 2 3 4 5 6 7 8 9 10 11 12 13 14 15 16 17 18 19 20 21 22 23 24 25 26 27
000
ASUS45 KBOI 240910
RWRID

IDAHO REGIONAL WEATHER ROUNDUP
NATIONAL WEATHER SERVICE BOISE ID
200 AM MST FRI NOV 24 2017

NOTE: "FAIR" INDICATES FEW OR NO CLOUDS BELOW 12000 FEET
WITH NO SIGNIFICANT WEATHER AND/OR OBSTRUCTIONS TO VISIBILITY

IDZ012-014-241000-
SOUTHWEST IDAHO


CITY           SKY/WX    TMP DP  RH WIND       PRES   REMARKS
BOISE          LGT RAIN  52  48  86 S3        29.94F
CALDWELL       LGT RAIN  55  48  77 S6        29.93S
MOUNTAIN HOME  CLOUDY    54  50  87 N12       29.92F
$$

IDZ016-017-241000-
SOUTHCENTRAL IDAHO


CITY           SKY/WX    TMP DP  RH WIND       PRES   REMARKS
BURLEY         MOCLDY    49  37  63 SW7       29.94F
JEROME         CLOUDY    52  39  61 SW13      29.97R
TWIN FALLS     PTCLDY    49  37  63 S16       29.95F
$$

IDZ019>023-241000-
SOUTHEAST IDAHO


CITY           SKY/WX    TMP DP  RH WIND       PRES   REMARKS
IDAHO FALLS    CLEAR     47  38  71 SW15      29.91R
POCATELLO      PTCLDY    49  39  68 SW10      29.95S
REXBURG        CLEAR     48  37  65 SW18G28   29.86F
$$

IDZ006-010-011-018-031-032-241000-
CENTRAL IDAHO MOUNTAINS


CITY           SKY/WX    TMP DP  RH WIND       PRES   REMARKS
MCCALL         MOCLDY    43  40  89 VRB3      29.93S
HAILEY         MOCLDY    46  39  76 CALM      29.95S
STANLEY          N/A     38  37  97 CALM      29.96R
SALMON         LGT RAIN  44  41  89 N9        29.88R
CHALLIS        LGT RAIN  47  40  76 W10       29.88R
$$

IDZ002-004-006-007-026-241000-
NORTHERN IDAHO


CITY           SKY/WX    TMP DP  RH WIND       PRES   REMARKS
LEWISTON       CLEAR     48  35  60 S5        29.96R
LOWELL           N/A     45  45 100 CALM      29.98R
COEUR D`ALENE  CLEAR     38  32  79 W6        29.91R WCI  33
MULLAN PASS    MOCLDY    27  23  85 VRB5      29.84R WCI  22
$$




USA.gov is the U.S. government's official web portal to all federal, state and local government web resources and services.